SCP
0 0 0 0 0 0 0 0 0 0 0 1 1 1 1 1 1 1 0 0 0 0 0 0 0 0 0 0 0 0 0 0 0 0 0 0 0 0 0 0 0 0 0
0 0 0 0 0 0 0 0 0 0 0 0 1 1 1 1 1 1 1 0 0 0 0 0 0 0 0 0 0 0 0 0 0 0 0 0 0 0 0 0 0 0 0
0 0 0 0 0 0 0 0 0 0 0 0 0 0 1 1 1 1 1 1 1 0 0 0 0 0 0 0 0 0 0 0 0 0 0 0 0 0 0 0 0 0 0
0 0 0 0 0 0 0 0 0 0 0 0 0 0 0 0 0 0 0 1 1 0 0 0 0 0 0 0 0 0 0 0 0 0 0 0 0 0 0 0 0 0 0
0 0 0 0 0 0 0 0 0 0 0 0 0 0 0 0 0 0 0 0 0 0 0 0 0 0 0 0 0 0 0 0 0 0 0 0 0 0 0 0 0 0 0
0 0 0 0 0 0 0 0 0 0 0 0 0 0 0 0 0 0 0 0 0 0 0 0 0 0 0 0 0 0 0 0 0 0 0 0 0 0 0 0 0 0 0
0 0 0 0 0 0 0 0 0 0 0 0 0 0 0 0 0 0 0 0 0 0 0 0 0 0 0 0 0 0 0 0 0 0 0 0 0 0 0 0 0 0 0
0 0 0 0 0 0 0 0 0 0 0 0 0 0 0 0 0 0 0 0 0 0 0 0 0 0 0 0 0 0 0 0 0 0 0 0 0 0 0 0 0 0 0
0 0 0 0 0 0 0 0 0 0 0 0 0 0 0 0 0 0 0 0 0 0 0 0 0 0 0 0 0 0 0 0 0 0 0 0 0 0 0 0 0 0 0
0 0 0 0 0 0 0 0 0 0 0 0 0 0 0 0 0 0 0 0 0 0 0 0 0 0 0 0 0 0 0 0 0 0 0 0 0 0 0 0 0 0 0
0 0 0 0 0 0 0 0 0 0 0 0 0 0 0 0 0 0 0 0 0 0 0 0 0 0 0 0 0 0 0 0 0 0 0 0 0 0 0 0 0 0 0
0 0 0 0 0 0 0 0 0 0 0 0 0 0 0 0 0 0 0 0 0 0 0 0 0 0 0 0 0 0 0 0 0 0 0 0 0 0 0 0 0 0 0
0 0 0 0 0 0 0 0 0 0 0 0 0 0 0 0 0 0 0 0 0 0 0 0 0 0 0 0 0 0 0 0 0 0 0 0 0 0 0 0 0 0 0
0 0 0 0 0 0 0 0 0 0 0 0 0 0 0 0 0 0 0 0 0 0 0 0 0 0 0 0 0 0 0 0 0 0 0 0 0 0 0 0 0 0 0
0 0 0 0 0 0 0 0 0 0 0 0 0 0 0 0 0 0 0 0 0 0 0 0 0 0 0 0 0 0 0 0 0 0 0 0 0 0 0 0 0 0 0
0 0 0 0 0 0 0 0 0 0 0 0 0 0 0 0 0 0 0 0 0 0 0 0 0 0 0 0 0 0 0 0 0 0 0 0 0 0 0 0 0 0 0
0 0 0 0 0 0 0 0 0 0 0 0 0 0 0 0 0 0 0 0 0 0 0 0 0 0 0 0 0 0 0 0 0 0 0 0 0 0 0 0 0 0 0
0 0 0 0 0 0 0 0 0 0 0 0 0 0 0 0 0 0 0 0 0 0 0 0 0 0 0 0 0 0 0 0 0 0 0 0 0 0 0 0 0 0 0
0 0 0 0 0 0 0 0 0 0 0 0 0 0 0 0 0 0 0 0 0 0 0 0 0 0 0 0 0 0 0 0 0 0 0 0 0 0 0 0 0 0 0
0 0 0 0 0 0 0 0 0 0 0 0 0 0 0 0 0 0 0 0 0 0 0 0 0 0 0 0 0 0 0 0 0 0 0 0 0 0 0 0 0 0 0
0 0 0 0 0 0 0 0 0 0 0 0 0 0 0 0 0 0 0 0 0 0 0 0 0 0 0 0 0 0 0 0 0 0 0 0 0 0 0 0 0 0 0
0 0 0 0 0 0 0 0 0 0 0 0 0 0 0 0 0 0 0 0 0 0 0 0 0 0 0 0 0 0 0 0 0 0 0 0 0 0 0 0 0 0 0
0 0 0 0 0 0 0 0 0 0 0 0 0 0 0 0 0 0 0 0 0 0 0 0 0 0 0 0 0 0 0 0 0 0 0 0 0 0 0 0 0 0 0
0 0 0 0 0 0 0 0 0 0 0 0 0 0 0 0 0 0 0 0 0 0 0 0 0 0 0 0 0 0 0 0 0 0 0 0 0 0 0 0 0 0 0
0 0 0 0 0 0 0 0 0 0 0 0 0 0 0 0 0 0 0 0 0 0 0 0 0 0 0 0 0 0 0 0 0 0 0 0 0 0 0 0 0 0 0
0 0 0 0 0 0 0 0 0 0 0 0 0 0 0 0 0 0 0 0 0 0 0 0 0 0 0 0 0 0 0 0 0 0 0 0 0 0 0 0 0 0 0
Wind_Speed
6 5 5 5 4 4 3 3 3 3 3 3 3 3 3 3 3 3 3 3 3 4 4 4 5 4 4 3 3 4 4 5 8 6 3 3 3 4 4 3 4 4 5
5 5 5 5 5 5 5 5 5 4 3 3 3 3 4 4 3 3 4 4 4 5 5 4 5 4 5 4 4 4 5 5 6 8 5 3 4 4 4 4 4 4 4
5 5 5 6 6 6 6 6 5 5 5 4 3 4 4 4 4 4 4 4 4 4 5 5 5 5 5 5 4 4 4 5 4 5 6 4 3 3 4 4 5 4 5
5 5 5 5 5 5 5 5 5 5 5 5 5 4 4 4 4 4 4 4 4 5 5 5 5 5 6 6 5 5 5 5 4 5 5 4 3 3 3 4 5 4 5
4 5 5 5 5 5 5 5 5 5 5 5 5 5 5 4 4 5 4 4 5 5 4 4 5 5 6 5 5 5 5 4 4 5 5 4 4 3 3 3 5 5 5
4 4 5 5 5 5 5 5 6 6 6 5 5 5 6 5 8 9 6 4 4 5 5 5 5 5 5 6 7 7 6 6 6 5 5 6 6 4 4 4 5 5 5
3 4 4 4 5 5 5 5 5 5 5 5 5 5 5 6 9 9 9 5 4 4 5 5 5 5 5 5 6 7 7 7 8 7 7 7 7 5 5 6 5 6 7
3 4 4 5 5 5 5 5 5 5 5 5 5 5 5 7 10 10 10 5 4 4 4 5 5 6 5 6 5 5 5 5 6 5 5 7 6 6 5 6 6 6 6
3 4 4 4 5 5 5 6 5 5 5 5 5 5 6 7 10 11 10 5 4 5 5 4 5 5 8 8 6 5 6 6 7 7 8 8 10 9 6 4 3 4 5
4 4 4 4 4 5 5 6 5 5 5 5 6 5 6 6 9 11 10 4 5 5 5 4 5 6 8 9 5 5 6 6 5 6 6 7 6 6 7 4 4 4 4
4 4 4 4 4 5 5 5 5 5 5 5 6 6 6 6 9 11 11 5 5 6 5 5 5 9 10 10 8 5 7 7 5 5 5 4 4 4 4 3 3 4 5
3 4 4 4 4 4 4 5 5 5 5 6 6 6 5 5 7 9 11 10 9 6 6 5 6 10 10 10 7 6 8 7 4 4 4 4 4 4 4 3 4 4 5
3 3 4 4 4 4 4 4 4 4 4 5 5 5 6 5 6 10 10 11 11 7 5 8 10 11 10 7 7 8 6 3 3 4 4 4 4 4 4 4 4 3 4
3 4 4 4 4 4 3 3 3 3 4 4 5 6 6 6 5 5 5 6 7 6 5 7 9 8 7 6 6 5 4 3 3 4 4 4 4 4 3 3 3 3 3
3 3 3 3 4 4 4 3 4 4 4 5 5 5 6 7 8 12 8 6 5 5 5 4 4 4 4 4 3 3 3 3 3 3 3 4 4 4 4 3 3 3 3
2 3 2 3 3 3 4 5 6 7 9 9 9 9 7 10 14 13 13 12 11 9 5 3 4 4 4 4 4 4 4 4 4 4 3 3 4 4 4 3 3 3 4
2 3 2 3 3 3 4 4 6 7 8 9 10 11 11 13 13 13 13 11 9 7 3 3 4 4 4 4 4 4 5 4 4 4 4 4 4 4 4 4 3 3 4
2 3 3 3 3 3 3 4 4 5 7 6 8 11 13 13 13 12 12 8 5 4 3 4 4 4 4 4 4 4 4 4 4 4 4 4 3 4 4 4 3 3 4
2 2 2 3 3 3 3 3 4 4 5 6 6 7 9 11 11 11 9 3 4 4 4 4 4 4 4 4 4 4 4 4 4 4 4 4 3 3 4 4 4 4 4
2 4 3 3 3 3 3 3 4 4 5 5 6 6 5 5 5 5 4 3 4 5 5 5 4 4 4 4 4 4 4 4 4 4 4 4 3 3 4 5 4 4 4
2 2 3 2 3 3 3 4 4 4 5 6 6 7 9 5 5 5 5 5 5 5 5 5 5 5 4 4 4 5 5 5 5 4 4 4 4 4 4 4 4 4 4
2 2 2 3 3 3 4 4 4 5 5 6 6 6 10 5 5 5 5 5 5 5 5 5 5 5 4 5 5 5 5 6 5 5 5 4 4 4 4 3 4 4 4
2 2 3 3 3 4 4 4 4 5 5 6 6 6 5 5 5 6 6 6 5 5 5 4 5 5 5 4 5 5 6 6 6 5 5 4 4 4 3 4 4 4 4
2 3 3 3 3 3 4 5 5 5 5 6 6 6 6 6 6 6 6 5 5 5 5 5 5 7 8 7 5 5 6 6 6 5 5 5 5 4 4 4 4 5 4
2 3 3 3 4 4 4 5 5 5 5 6 6 6 6 6 6 6 6 5 6 6 7 6 5 6 8 9 8 7 9 10 8 5 4 4 4 4 4 4 4 3 3
3 3 3 3 4 4 4 5 5 6 6 6 6 6 6 6 6 6 6 6 6 6 6 6 6 8 9 8 9 10 10 10 8 6 4 3 4 4 4 3 3 3 3
Wind_Direction
14 14 19 16 17 18 15 354 332 323 322 315 308 306 304 301 301 300 295 307 296 291 292 287 283 282 274 271 269 270 268 265 270 280 279 287 282 285 297 292 288 283 281
10 17 20 17 19 18 7 356 351 340 328 319 315 310 305 307 302 294 293 295 287 286 289 289 289 292 283 276 268 267 267 264 268 280 286 288 282 288 295 295 299 296 290
11 16 17 13 13 9 360 353 353 348 346 342 336 327 319 313 308 302 294 291 284 280 281 282 285 286 285 284 278 271 269 271 263 271 283 287 288 302 309 307 303 297 297
11 13 9 5 2 358 354 354 352 352 353 350 345 337 329 322 316 309 300 292 287 286 286 283 283 279 280 284 285 282 279 277 273 269 274 284 288 302 302 303 307 305 305
9 6 357 354 357 357 357 356 354 356 354 350 348 343 336 330 324 319 310 301 297 299 301 297 295 290 288 286 287 290 290 282 279 277 276 281 282 297 297 301 297 305 296
5 354 349 353 356 355 352 353 354 353 351 350 346 342 339 333 331 327 321 314 311 304 302 304 303 295 299 303 298 295 289 282 281 277 278 278 282 286 293 291 296 304 295
350 346 346 348 350 348 347 349 348 344 344 342 337 338 334 330 330 330 326 317 311 305 302 306 310 314 310 309 308 308 302 293 284 277 279 279 283 282 280 280 278 280 278
344 343 344 345 342 341 342 340 338 337 335 329 328 328 327 330 332 330 327 321 312 310 308 304 304 310 311 312 312 310 306 303 297 291 282 285 286 289 278 272 276 283 285
340 336 335 335 332 333 334 331 328 327 324 324 324 327 327 326 331 330 328 319 314 313 311 312 306 302 306 310 308 303 303 302 306 301 295 295 296 297 296 290 285 286 287
323 323 327 330 328 326 323 322 322 320 316 319 320 323 320 319 326 331 330 320 317 313 312 312 305 302 305 306 298 292 293 300 307 310 309 312 311 307 301 279 267 267 281
323 327 330 331 325 318 320 323 323 321 322 321 321 323 322 321 325 330 332 329 318 312 310 309 305 307 306 306 303 296 291 298 302 298 300 306 311 311 308 297 281 262 261
335 334 333 333 329 327 329 326 327 325 322 320 320 320 321 321 324 326 329 325 319 307 304 305 305 308 306 304 302 299 300 301 298 297 297 300 302 304 305 307 299 286 274
336 327 324 327 327 328 325 322 324 324 318 315 316 314 316 320 320 323 322 319 317 309 301 303 306 309 310 310 311 309 307 302 298 294 292 295 298 299 305 304 300 296 290
315 316 322 325 325 326 320 315 312 310 309 309 309 309 310 313 316 317 312 313 313 312 309 309 310 312 314 320 321 318 312 300 286 282 287 292 298 301 296 299 299 309 306
304 310 318 316 314 315 313 303 300 291 289 298 297 297 303 306 311 316 317 314 312 307 315 311 315 319 320 322 323 321 316 310 296 289 283 287 292 298 300 307 299 302 288
294 306 308 308 306 307 310 310 305 303 308 308 311 312 305 306 314 316 316 314 315 317 322 307 306 308 306 308 309 311 309 307 301 289 284 287 291 295 299 304 303 290 286
256 280 290 295 297 301 305 307 311 315 313 315 318 319 318 317 318 320 321 318 319 327 322 304 300 298 298 299 297 295 293 296 300 296 289 287 287 287 288 292 296 295 290
254 265 269 274 280 284 287 291 295 303 310 310 313 316 321 322 322 325 326 326 321 325 298 290 291 292 292 291 290 291 291 294 294 291 288 284 280 278 277 278 280 280 285
253 261 261 266 271 274 281 285 285 287 290 298 308 313 319 318 319 325 334 324 300 298 293 286 283 284 285 284 284 284 284 284 283 282 278 276 275 273 272 272 274 277 280
248 262 266 268 277 281 281 282 285 287 290 294 297 300 311 316 313 317 319 307 300 296 293 289 287 283 282 280 280 280 281 279 277 272 272 272 269 265 268 271 270 271 271
246 264 265 270 269 271 275 276 279 282 284 286 287 293 309 306 300 300 301 298 294 293 293 292 291 289 285 283 281 277 275 275 272 269 268 266 264 266 265 265 269 268 270
238 252 257 261 270 274 275 275 278 280 283 286 292 297 307 302 292 291 290 289 287 284 284 284 285 284 281 279 277 277 276 274 271 268 267 265 260 259 261 264 266 270 268
234 252 265 268 269 275 278 276 277 279 283 286 291 295 295 291 288 287 288 291 292 291 289 285 284 286 285 279 271 268 270 270 268 263 262 261 257 253 252 258 261 266 263
238 249 260 269 270 271 275 279 280 281 283 286 288 287 288 287 287 287 288 291 292 291 289 286 281 283 287 290 285 276 272 272 268 258 249 249 251 251 250 254 256 255 254
234 246 255 262 266 271 276 281 282 283 284 285 287 288 290 291 292 292 292 291 292 290 290 289 286 287 289 290 289 285 283 283 277 255 236 236 242 243 247 249 249 247 245
238 248 256 262 265 269 273 279 283 285 286 288 289 289 290 291 292 294 295 296 298 296 295 293 290 292 294 292 290 291 289 286 279 255 230 227 230 237 237 240 237 238 239